Terug naar catalogus

SJ 16-02 DEB

ActiefLEO
NORAD 43428·DEBRIS·🇨🇳 China

Gelanceerd Jun 29, 2016 vanaf Jiuquan Satellite Launch Center

Loading…

Volgende Passages (komende 24 uur)

TLE

VersSource: Space-Track

Epoch: Sep 12, 2026, 16:23 UTC

1 43428U 16043C   26255.68318944  .00001762  00000-0  39789-3 0  9993
2 43428  74.9640 352.6230 0239923 254.2749 103.1832 14.40679796531601

Volg SJ 16-02 DEB in realtime met AllMySat

Download on the App Store